Track COSMOS 2432 (GLONASS) now! COSMOS 2432 (GLONASS) is classified as:
1 32276U 07052B 26021.81044120 -.00000041 00000-0 00000-0 0 9991 2 32276 65.6765 320.9853 0011335 321.1460 215.8745 2.13103426141962